weather.gov     
National Weather Service

Regional Weather Roundup
NWS Homepage
This page is being discontinued on March 12, 2014.
The same data is available at this site. Please update your bookmarks.
Thank you, and we apologize for the inconvenience.
Please send an email to SR-SRH.Webmaster@noaa.gov with any concerns.


Current Version
Previous Version:    01  02  03  04  05  06  07  08  09  10  11  12  13  14  15  16  17  18  19  20  21  22  23  24  25  26  27  28  29  30  
   31  32  33  34  35  36  37  38  39  40  41  42  43  44  45  46  47  48  49  50  51  52  53  
[Printable]
518
ASUS44 KMAF 261910
RWRMAF
MIDLAND AREA WEATHER ROUNDUP
NATIONAL WEATHER SERVICE MIDLAND TX
200 PM CDT SAT JUL 26 2014

...IN SOUTHWEST TEXAS AND SOUTHEAST NEW MEXICO...

CITY           SKY/WX    TMP DP  RH WIND       PRES   REMARKS
ALPINE         PTSUNNY   89  51  27 CALM      30.18F
ANDREWS        FAIR      95  51  22 SE8G17    30.03F
ARTESIA        SUNNY     95  54  24 S7G17     30.01F
BIG SPRING     SUNNY     99  57  24 S13G21    30.04F
CARLSBAD       SUNNY     98  51  20 VRB7      29.99F
DRYDEN           N/A    101  61  26 S12       29.99F HX 102
FORT STOCKTON  SUNNY     96  49  20 CALM      30.01F
GUAD PASS      SUNNY     89  49  25 CALM        N/A
HOBBS          SUNNY     93  45  18 SE7       30.06F
MARFA          MOSUNNY   88  52  29 CALM      30.19S
MIDLAND AIRPK  SUNNY     96  53  22 S12       30.03S
MIDLAND INTL   SUNNY     96  58  27 S13G20    30.02F
ODESSA         SUNNY     94  55  26 VRB3G22   30.03F
PECOS          SUNNY     99  47  17 E3        29.97F
PRESIDIO       FAIR      98  54  22 E6        30.00F
SEMINOLE       SUNNY     95  47  19 S8        30.05F
SNYDER         SUNNY     96  58  28 SE9G21    30.02F
WINK           SUNNY     97  54  23 S7        29.97F
$$
...OTHER STATIONS IN TEXAS...

CITY           SKY/WX    TMP DP  RH WIND       PRES   REMARKS
ABILENE        MOSUNNY   94  63  35 VRB7G20   30.01F
AMARILLO       SUNNY     96  55  25 S16G23    30.04F
AUSTIN         MOSUNNY   95  68  41 S13G21    29.99F
BROWNSVILLE    PTSUNNY   94  74  52 SE20G32   30.01S HX 104
CORPUS CHRISTI MOSUNNY   96  74  48 SE20G31   30.00F HX 107
DALLAS FTW     MOSUNNY   99  65  32 S10G22    29.96F HX 102
DEL RIO        SUNNY     98  65  33 S16       29.95F HX 101
EL PASO        SUNNY     95  49  20 VRB5      30.04F
HOUSTON INT    MOSUNNY   94  72  48 VRB6      30.02F HX 102
LUBBOCK        MOSUNNY   96  51  21 S17G30    30.05F
SAN ANGELO     MOSUNNY   98  59  27 S13G21    30.00F
SAN ANTONIO    MOSUNNY   93  71  48 SE8       30.02F HX 100
WACO           SUNNY     97  68  38 S13G23    29.98F HX 102
WICHITA FALLS  NOT AVBL
$$
...OTHER LOCATIONS IN NEW MEXICO...

CITY           SKY/WX    TMP DP  RH WIND       PRES   REMARKS
ALAMAGORDO     SUNNY     95  45  17 S5        30.06F
ALBUQUERQUE    MOSUNNY   92  48  22 VRB6      30.17F
CANNON AFB     MOSUNNY   96  53  23 VRB5      30.07F
CLOVIS         NOT AVBL
HOLLOMAN AFB   MOSUNNY   98  45  16 W10       30.04F
ROSWELL        SUNNY     98  53  22 E9        30.01F
RUIDOSO        SUNNY     90  37  15 E15G23    30.29F
SANTA FE       SUNNY     93  41  16 NW13      30.23F
TRUTH OR CONSE SUNNY     97  45  16 NE8       30.10F
TUCUMCARI      SUNNY     97  51  21 CALM      30.03F
$$




U.S. Dept. of Commerce
NOAA National Weather Service
1325 East West Highway
Silver Spring, MD 20910
E-mail: w-nws.webmaster@noaa.gov
Page last modified: May 16, 2007
NATIONAL WEATHER SERVICE: for Safety, for Work, for Fun - FOR LIFE